METLOCID,DATE_TIME,AVG_RH,STDDEV_RH,MIN_RH,MAX_RH,N_RH,AVG_RH1M,STDDEV_RH1M,MIN_RH1M,MAX_RH1M,N_RH1M
HODM,11/1/93,81.89166667,15.50852752,55.85,99.99,36,,,,,0
HODM,12/1/93,68.89619597,19.16696399,23.38,99.99,1388,,,,,0
HODM,1/1/94,61.99209859,14.94321811,38.7,99.99,710,,,,,0
HODM,2/1/94,69.49200893,19.08070767,33.02,99.99,224,,,,,0
HODM,3/1/94,69.81366935,16.21732759,34.34,98.24,248,,,,,0
HODM,4/1/94,67.78370833,19.57712468,35.8,99.99,240,,,,,0
HODM,5/1/94,71.89681452,16.33994856,35.3,98.37,248,,,,,0
HODM,6/1/94,61.827625,19.35351011,30.65,99.16,240,,,,,0
HODM,7/1/94,62.53209677,18.25210259,24.58,97.56,248,,,,,0
HODM,8/1/94,59.62959677,17.16196073,32.32,95.06,248,,,,,0
HODM,9/1/94,54.40995833,18.12302141,27.66,97.58,240,,,,,0
HODM,10/1/94,67.01056452,20.95118246,30.23,99.99,248,,,,,0
HODM,11/1/94,72.0706768,16.71162095,24.3,99.99,724,,,,,0
HODM,12/1/94,67.20540117,20.34483473,25.3,99.99,2231,,,,,0
HODM,1/1/95,71.90070884,19.91596093,22.5,99.99,2229,,,,,0
HODM,2/1/95,65.70625935,24.05658457,21.42,99.99,2005,,,,,0
HODM,3/1/95,70.52965054,20.62367432,33.12,99.99,2232,,,,,0
HODM,4/1/95,69.10683796,20.95509154,33.43,99.99,2160,,,,,0
HODM,5/1/95,65.4812276,20.26509014,33.07,97.14,2232,,,,,0
HODM,6/1/95,54.3712037,19.1748971,25.29,96.58,2160,,,,,0
HODM,7/1/95,58.22537634,16.6649421,27.03,96.93,2232,,,,,0
HODM,8/1/95,54.99811828,17.20062737,25.25,93.87,2232,,,,,0
HODM,9/1/95,63.09088889,19.22160575,28.84,99.24,2160,,,,,0
HODM,10/1/95,56.50659498,19.44262765,25.25,99.99,2232,,,,,0
HODM,11/1/95,49.3015,17.58365993,22.64,99.99,2240,,,,,0
HODM,12/1/95,66.75417479,17.46814935,31.74,99.99,2975,,,,,0
HODM,1/1/96,70.90228312,20.18662331,28.8,99.99,2974,,,,,0
HODM,2/1/96,61.9866954,13.33869027,29.5,98.74,2784,,,,,0
HODM,3/1/96,71.15548723,19.95618691,20.9,99.99,2976,,,,,0
HODM,4/1/96,67.98276042,21.61593936,30.84,99.99,2880,,,,,0
HODM,5/1/96,68.31429099,16.46253814,35.46,99.2,2976,,,,,0
HODM,6/1/96,64.56788889,17.82159923,29.55,97.63,2880,,,,,0
HODM,7/1/96,50.1153461,14.75695899,25.75,85.61,2976,,,,,0
HODM,8/1/96,57.50168683,17.93527415,27.36,96.74,2976,,,,,0
HODM,9/1/96,56.3270625,16.34222759,32.33,97.62,2880,,,,,0
HODM,10/1/96,58.06798723,18.93573969,27.53,98.87,2976,,,,,0
HODM,11/1/96,55.58644668,19.23436682,20.5,99.99,2879,,,,,0
HODM,12/1/96,59.80334341,17.67105672,28.2,99.99,2976,,,,,0
HODM,1/1/97,71.16077311,19.46764805,30.7,99.99,2975,,,,,0
HODM,2/1/97,65.09223214,17.26917049,26.18,99.99,2688,,,,,0
HODM,3/1/97,66.77460685,21.12895687,31.06,97.3,2976,,,,,0
HODM,4/1/97,64.13340972,20.74204214,31.5,98.98,2880,,,,,0
HODM,5/1/97,55.89507056,20.30013812,24.35,97.85,2976,,,,,0
HODM,6/1/97,57.95478472,20.61027063,26.76,97.61,2880,,,,,0
HODM,7/1/97,58.33510081,15.99679666,30.28,96.23,2976,,,,,0
HODM,8/1/97,58.05354839,15.01557602,34.64,93.93,2976,,,,,0
HODM,9/1/97,56.74842708,17.23256584,29.87,99.64,2880,,,,,0
HODM,10/1/97,62.91718078,21.49322383,28.54,99.99,2976,,,,,0
HODM,11/1/97,54.81256259,23.21203791,24.6,99.99,2876,,,,,0
HODM,12/1/97,75.52728495,20.13692941,22.5,99.99,2976,,,,,0
HODM,1/1/98,74.75593414,18.42645867,24.73,99.99,2976,,,,,0
HODM,2/1/98,68.34046875,23.37552906,27.97,99.99,2688,,,,,0
HODM,3/1/98,60.43259745,18.98338672,31.3,99.99,2976,,,,,0
HODM,4/1/98,57.73339236,16.05463822,29,96.62,2880,,,,,0
HODM,5/1/98,61.69784274,20.32851054,26.45,96.06,2976,,,,,0
HODM,6/1/98,57.66676042,20.79893113,26.63,99.99,2880,,,,,0
HODM,7/1/98,55.44773522,18.81338928,28.01,94.36,2976,,,,,0
HODM,8/1/98,51.30202621,14.8971739,26.89,89.07,2976,,,,,0
HODM,9/1/98,57.24125347,14.04562842,28.91,95.43,2880,,,,,0
HODM,10/1/98,55.85808804,21.60065025,23.49,97.11,2976,,,,,0
HODM,11/1/98,53.83034375,17.24168694,24.3,99.99,2880,,,,,0
HODM,12/1/98,58.52880712,23.09653443,20.9,99.99,2976,,,,,0
HODM,1/1/99,66.74148185,22.08221827,23.61,99.99,2976,,,,,0
HODM,2/1/99,67.60593006,18.24871627,23.65,99.99,2688,,,,,0
HODM,3/1/99,53.87105511,14.75571453,26.88,96.35,2976,,,,,0
HODM,4/1/99,56.06945139,13.36265263,31.81,92.87,2880,,,,,0
HODM,5/1/99,47.46124328,12.93615633,29.72,96.66,2976,,,,,0
HODM,6/1/99,57.84395139,22.24752511,27.98,99.99,2880,,,,,0
HODM,7/1/99,53.14542339,18.82495092,28.59,99.3,2976,,,,,0
HODM,8/1/99,48.27134409,14.18785499,29.02,89.81,2976,,,,,0
HODM,9/1/99,58.81876736,20.47016567,27.75,99.99,2880,,,,,0
HODM,10/1/99,46.16370632,20.12319754,22.94,96.65,2976,,,,,0
HODM,11/1/99,57.1651875,22.19099924,21.9,99.99,2880,,,,,0
HODM,12/1/99,55.80418347,19.68794066,22.19,99.99,2976,,,,,0
HODM,1/1/00,66.36889375,21.80248904,14.79,99.99,2974,,,,,0
HODM,2/1/00,69.07770474,23.01676143,16.37,99.99,2784,,,,,0
HODM,3/1/00,69.82470094,24.72876205,16.59,99.99,2976,,,,,0
HODM,4/1/00,68.53751736,20.80880774,24.41,99.99,2880,,,,,0
HODM,5/1/00,65.61994573,23.07465359,24.64,99.99,2948,,,,,0
HODM,6/1/00,61.80486111,21.86595143,21.06,99.99,2880,,,,,0
HODM,7/1/00,54.10489824,24.98025177,15.84,99.99,2948,,,,,0
HODM,8/1/00,53.99720094,24.0928898,12.63,99.99,2976,,,,,0
HODM,9/1/00,52.47555556,24.60947709,12.58,99.99,2880,,,,,0
HODM,10/1/00,68.1755914,20.03181327,28.53,99.99,2976,,,,,0
HODM,11/1/00,65.17747829,24.93688272,20.35,99.99,2879,,,,,0
HODM,12/1/00,72.86137097,17.64601846,27.14,99.99,2976,,,,,0
HODM,1/1/01,73.96586694,19.91640866,14.9,99.99,2976,,,,,0
HODM,2/1/01,65.92050595,20.23460713,14.78,99.99,2688,,,,,0
HODM,3/1/01,67.98820228,21.89973776,11.73,99.99,2976,,,,,0
HODM,4/1/01,67.67118403,25.00655265,18.2,99.99,2880,,,,,0
HODM,5/1/01,59.05229167,21.87068166,12,99.99,2976,,,,,0
HODM,6/1/01,61.37901389,19.00556716,26.73,99.99,2880,,,,,0
HODM,7/1/01,57.25170699,20.13415694,18.29,99.99,2976,,,,,0
HODM,8/1/01,64.98099798,24.6372756,18.1,99.99,2976,,,,,0
HODM,9/1/01,56.89042014,21.02946758,15.68,99.99,2880,,,,,0
HODM,10/1/01,54.13444556,17.77144948,21.56,99.99,2976,,,,,0
HODM,11/1/01,58.17946875,16.47245646,18.3,99.99,2880,,,,,0
HODM,12/1/01,57.85797715,16.781501,16.2,99.99,2976,,,,,0
HODM,1/1/02,68.89739583,25.13855676,15.1,99.99,2976,,,,,0
HODM,2/1/02,68.8006994,18.55201606,18.94,99.99,2688,,,,,0
HODM,3/1/02,65.08565524,21.18519554,22.08,99.99,2976,,,,,0
HODM,4/1/02,61.21278125,22.24124725,25.65,99.99,2880,,,,,0
HODM,5/1/02,59.1065625,22.02949359,19.47,99.99,2976,,,,,0
HODM,6/1/02,67.85598611,23.96488934,12.57,99.99,2880,,,,,0
HODM,7/1/02,48.10199261,20.19301453,14.11,99.99,2976,,,,,0
HODM,8/1/02,59.19016801,22.34971522,22.45,99.99,2976,,,,,0
HODM,9/1/02,64.43843403,24.76746523,20.03,99.99,2880,,,,,0
HODM,10/1/02,66.46168683,21.12252644,19.56,99.99,2976,,,,,0
HODM,11/1/02,71.88429167,22.83928068,18.73,99.99,2880,,,,,0
HODM,12/1/02,71.55645833,19.52679981,16.98,99.99,2976,,,,,0
HODM,1/1/03,73.54891129,18.76559236,23.3,99.99,2976,,,,,0
HODM,2/1/03,72.18778646,19.03635888,31.06,99.97,2688,,,,,0
HODM,3/1/03,65.96537634,20.95646971,29.08,99.98,2976,,,,,0
HODM,4/1/03,68.47403472,21.55590923,30.95,99.95,2880,,,,,0
HODM,5/1/03,54.77012433,21.63561187,12.81,99.97,2976,,,,,0
HODM,6/1/03,62.85678472,23.00548339,17.04,99.98,2880,,,,,0
HODM,7/1/03,50.89047379,20.82996208,18.09,99.96,2976,,,,,0
HODM,8/1/03,61.57504368,21.58265371,14.1,99.94,2976,,,,,0
HODM,9/1/03,64.47271875,25.01983548,11.01,99.98,2880,,,,,0
HODM,10/1/03,57.88488239,22.58492303,14.45,99.95,2976,,,,,0
HODM,11/1/03,63.65000694,18.07851372,22.7,99.97,2880,,,,,0
HODM,12/1/03,61.80616263,22.72526168,12.48,99.97,2976,,,,,0
HODM,1/1/04,72.05018481,17.07912263,30.24,99.93,2976,,,,,0
HODM,2/1/04,62.6355352,18.27063373,20.95,99.98,2784,,,,,0
HODM,3/1/04,69.84025874,20.14490884,25.42,99.98,2976,,,,,0
HODM,4/1/04,64.47369444,21.25190479,26.61,99.98,2880,,,,,0
HODM,5/1/04,58.60545027,21.42849239,18.97,99.95,2976,,,,,0
HODM,6/1/04,54.57418403,26.63895207,7.96,99.97,2880,,,,,0
HODM,7/1/04,57.91873656,22.8214649,10.45,99.9,2976,,,,,0
HODM,8/1/04,51.06297379,26.19853635,9.7,99.92,2976,,,,,0
HODM,9/1/04,68.30969097,22.73208009,15.37,99.96,2880,,,,,0
HODM,10/1/04,57.58431452,19.13364027,22.41,99.96,2976,,,,,0
HODM,11/1/04,57.69752083,19.98104488,18.29,99.94,2880,,,,,0
HODM,12/1/04,68.41201277,20.12394555,20.08,99.97,2976,,,,,0
HODM,1/1/05,73.3890961,17.2939769,31.41,99.98,2976,,,,,0
HODM,2/1/05,67.55292411,21.96908504,20.02,99.98,2688,,,,,0
HODM,3/1/05,61.87294691,20.4720508,23.58,99.96,2976,,,,,0
HODM,4/1/05,72.93623611,21.15791156,24.79,99.98,2880,,,,,0
HODM,5/1/05,64.81094086,22.13184504,22.24,99.98,2976,,,,,0
HODM,6/1/05,60.27165278,24.44043421,18.79,99.98,2880,,,,,0
HODM,7/1/05,63.74552755,23.50860925,11.32,99.95,2976,,,,,0
HODM,8/1/05,64.66167339,23.74832921,18.57,99.97,2976,,,,,0
HODM,9/1/05,46.6456875,17.36514829,12.56,99.93,2880,,,,,0
HODM,10/1/05,60.31308132,23.07795522,11.98,99.97,2976,,,,,0
HODM,11/1/05,64.80931597,20.41902169,14.12,99.98,2880,,,,,0
HODM,12/1/05,69.87930108,20.514122,20.7,99.98,2976,,,,,0
HODM,1/1/06,65.35795077,17.85046301,24.8,97.3,1503,,,,,0
HODM,2/1/06,,,,,0,,,,,0
HODM,3/1/06,,,,,0,,,,,0
HODM,4/1/06,,,,,0,,,,,0
HODM,5/1/06,,,,,0,,,,,0
HODM,6/1/06,,,,,0,,,,,0
HODM,7/1/06,,,,,0,,,,,0
HODM,8/1/06,,,,,0,,,,,0
HODM,9/1/06,,,,,0,,,,,0
HODM,10/1/06,,,,,0,,,,,0
HODM,11/1/06,,,,,0,,,,,0
HODM,12/1/06,,,,,0,,,,,0
HODM,1/1/07,65.07298734,15.59724009,19.55,99.99,1185,,,,,0
HODM,2/1/07,76.58146949,18.63903596,27.06,99.99,2688,,,,,0
HODM,3/1/07,66.51348118,23.89783474,18.02,99.99,2976,,,,,0
HODM,4/1/07,61.35792361,20.953368,24.43,99.99,2880,,,,,0
HODM,5/1/07,54.78970766,21.27744471,10.87,99.99,2976,,,,,0
HODM,6/1/07,60.19075,21.9918612,13.73,99.99,2880,,,,,0
HODM,7/1/07,52.85394153,21.13631316,12.18,99.99,2976,,,,,0
HODM,8/1/07,57.15393817,21.29167095,11.34,99.99,2976,,,,,0
HODM,9/1/07,59.70604514,23.12435021,13.94,99.99,2880,,,,,0
HODM,10/1/07,67.08534274,24.65984493,13.08,99.99,2976,,,,,0
HODM,11/1/07,65.09769792,18.32742675,24.12,99.99,2880,,,,,0
HODM,12/1/07,64.31055108,22.80273215,16.81,99.99,2976,,,,,0
HODM,1/1/08,67.02862857,17.01245943,24.67,99.99,2975,,,,,0
HODM,2/1/08,70.46519756,17.21198577,31.18,99.99,2784,,,,,0
HODM,3/1/08,67.64778898,19.82101429,17.97,99.99,2976,,,,,0
HODM,4/1/08,62.31040972,21.78937696,23.46,99.99,2880,,,,,0
HODM,5/1/08,54.60449261,18.82600133,17.86,99.99,2976,,,,,0
HODM,6/1/08,66.04768403,23.01389515,17.49,99.99,2880,,,,,0
HODM,7/1/08,58.12230175,20.49631018,14.92,99.99,2976,,,,,0
HODM,8/1/08,57.27123992,23.05479546,13.82,99.99,2976,,,,,0
HODM,9/1/08,52.25338889,21.08501546,13.73,99.99,2880,,,,,0
HODM,10/1/08,71.21354167,19.25091996,25.91,99.99,2976,,,,,0
HODM,11/1/08,60.95938542,21.50264477,14.99,99.99,2880,,,,,0
HODM,12/1/08,59.32364919,18.94778886,16.61,99.99,2976,,,,,0
HODM,1/1/09,76.5250392,16.63124799,37.27,99.99,1403,,,,,0
HODM,10/1/09,67.16721866,20.36828531,25.26,99.99,1093,,,,,0
HODM,11/1/09,58.27795139,18.6219733,20.58,99.99,2880,,,,,0
HODM,12/1/09,72.73585349,18.40629947,26.7,100,2976,,,,,0
HODM,1/1/10,76.07913306,15.74200968,22.1,100,2976,,,,,0
HODM,2/1/10,72.28828125,20.49386504,18.8,100,2688,,,,,0
HODM,3/1/10,71.1734879,19.73437472,25.1,100,2976,,,,,0
HODM,4/1/10,65.95295139,23.25354843,18.4,100,2880,,,,,0
HODM,5/1/10,61.60178091,21.85598578,24,100,2976,,,,,0
HODM,6/1/10,54.06982639,18.59730797,19.4,100,2880,,,,,0
HODM,7/1/10,53.45248656,19.84297671,18.5,100,2976,,,,,0
HODM,8/1/10,61.30924059,26.65621605,12.7,100,2976,,,,,0
HODM,9/1/10,64.2540625,23.75537783,22.7,100,2880,,,,,0
HODM,10/1/10,60.64398522,21.24096923,14.3,100,2976,,,,,0
HODM,11/1/10,52.88482639,19.74877617,13.2,100,2880,,,,,0
HODM,12/1/10,62.80866935,19.80299083,14.2,100,2976,,,,,0
HODM,1/1/11,81.18938172,17.93249175,27.9,100,2976,,,,,0
HODM,2/1/11,73.17734375,16.117517,31.3,100,2688,,,,,0
HODM,3/1/11,69.50772849,21.58876927,26.7,100,2976,,,,,0
HODM,4/1/11,69.90125,23.39471189,20.4,100,2880,,,,,0
HODM,5/1/11,62.24711022,19.84107627,20.8,100,2976,,,,,0
HODM,6/1/11,63.95454861,24.31235333,22.3,100,2880,,,,,0
HODM,7/1/11,57.78702957,20.91598624,16.3,100,2976,,,,,0
HODM,8/1/11,61.56273522,22.95828645,14.8,100,2976,,,,,0
HODM,9/1/11,70.50649306,25.33574693,12.5,100,2880,,,,,0
HODM,10/1/11,63.50302419,25.59933936,14.1,100,2976,,,,,0
HODM,11/1/11,59.98940972,19.9746462,17.2,100,2880,,,,,0
HODM,12/1/11,67.17543427,21.09866537,14.4,100,2959,,,,,0
HODM,1/1/12,72.54791933,17.29320075,28.38,100,2975,,,,,0
HODM,2/1/12,66.85768319,20.43561639,17.44,100,2784,,,,,0
HODM,3/1/12,63.65761761,24.24165533,21.99,100,2976,,,,,0
HODM,4/1/12,65.2186875,22.46606692,27.32,100,2880,,,,,0
HODM,5/1/12,57.9052621,26.13044043,15.95,100,2976,,,,,0
HODM,6/1/12,58.72884375,23.13441469,14.25,100,2880,,,,,0
HODM,7/1/12,67.10716062,22.00981767,24.12,100,2976,,,,,0
HODM,8/1/12,64.32912634,25.57734195,11.83,100,2976,,,,,0
HODM,9/1/12,63.07141667,19.84894339,23.29,100,2880,,,,,0
HODM,10/1/12,59.19349462,19.59729197,25.5,100,2976,,,,,0
HODM,11/1/12,60.99111458,18.26657902,24.9,100,2880,,,,,0
HODM,12/1/12,70.6953629,18.32563015,26.73,100,2976,,,,,0
HODM,1/1/13,73.56113911,21.22018263,20.9,100,2976,,,,,0
HODM,2/1/13,71.94151786,19.49943413,22.8,100,2688,,,,,0
HODM,3/1/13,70.36326613,20.15692956,29.35,100,2976,,,,,0
HODM,4/1/13,62.1234375,20.31558332,20.46,100,2880,,,,,0
HODM,5/1/13,67.66286626,22.30256344,28.3,100,2976,,,,,0
HODM,6/1/13,66.01593056,22.47205761,21.17,100,2880,,,,,0
HODM,7/1/13,69.84770161,23.72744429,20.79,100,2976,,,,,0
HODM,8/1/13,54.52490255,19.85646136,12.51,100,2976,,,,,0
HODM,9/1/13,57.31717361,24.118806,14.41,100,2880,,,,,0
HODM,10/1/13,69.30254704,21.00615992,18.77,100,2976,,,,,0
HODM,11/1/13,59.638375,20.04916835,22.11,100,2880,,,,,0
HODM,12/1/13,67.03080645,20.3874465,20.95,100,2976,,,,,0
HODM,1/1/14,68.22997984,20.92894573,19.67,100,2976,,,,,0
HODM,2/1/14,71.83693824,20.48327421,16.65,100,2688,,,,,0
HODM,3/1/14,70.62108871,23.47667399,19.56,100,2976,,,,,0
HODM,4/1/14,66.91251042,25.67397211,13.29,100,2880,,,,,0
HODM,5/1/14,67.21682796,23.2314226,21.32,100,2976,,,,,0
HODM,6/1/14,66.89551389,22.89399916,17.73,100,2880,,,,,0
HODM,7/1/14,63.74867944,20.58859122,26.25,100,2976,,,,,0
HODM,8/1/14,64.65054772,24.09204092,27.84,100,2976,,,,,0
HODM,9/1/14,60.50946181,22.25007797,17.36,100,2880,,,,,0
HODM,10/1/14,67.82515121,22.13377048,28.59,100,2976,,,,,0
HODM,11/1/14,71.92773532,17.95362554,24.02,100,2879,,,,,0
HODM,12/1/14,73.13228831,16.46987577,29.26,100,2976,,,,,0
HODM,1/1/15,70.28354167,21.38831481,20.71,100,2976,,,,,0
HODM,2/1/15,65.83401042,21.15615658,21.24,100,2688,,,,,0
HODM,3/1/15,64.97523858,19.90649758,22.65,100,2976,,,,,0
HODM,4/1/15,70.23873264,22.30136509,27.06,100,2880,,,,,0
HODM,5/1/15,60.3085047,21.74176482,20.28,100,2976,,,,,0
HODM,6/1/15,55.20827083,18.34805939,13.86,100,2880,,,,,0
HODM,7/1/15,60.47625,24.38786953,13.86,100,2976,,,,,0
HODM,8/1/15,57.88153898,24.81248367,14.22,100,2976,,,,,0
HODM,9/1/15,58.26781597,22.40722255,11.39,100,2880,,,,,0
HODM,10/1/15,63.21160954,23.61765097,14.93,100,2976,,,,,0
HODM,11/1/15,59.56367397,21.21443675,17.13,100,2877,,,,,0
HODM,12/1/15,67.94577285,22.62208944,10.23,100,2976,,,,,0
HODM,1/1/16,70.12381048,22.46536843,17.61,100,2976,,,,,0
HODM,2/1/16,66.65749282,19.90482284,20.82,100,2784,,,,,0
HODM,3/1/16,65.55963374,20.79570222,26.28,100,2976,,,,,0
HODM,4/1/16,62.87916667,21.25315357,29.34,100,2880,,,,,0
HODM,5/1/16,58.9627453,23.31839431,12.5,100,2976,,,,,0
HODM,6/1/16,69.93761111,20.20645041,27.74,100,2880,,,,,0
HODM,7/1/16,60.82282258,19.66112245,15.58,100,2976,,,,,0
HODM,8/1/16,53.31431452,22.36958649,13.54,100,2976,,,,,0
HODM,9/1/16,63.55862847,22.7869003,14.55,100,2880,,,,,0
HODM,10/1/16,66.84750841,21.93953105,18.48,100,2974,,,,,0
HODM,11/1/16,60.53015278,21.74733141,11.04,100,2880,,,,,0
HODM,12/1/16,64.50054099,20.62752614,14.39,100,2976,,,,,0
HODM,1/1/17,68.72111895,18.70240689,20.04,100,2976,,,,,0
HODM,2/1/17,61.98959449,18.93708158,24.11,100,2688,,,,,0
HODM,3/1/17,74.60821909,22.99302107,22.16,100,2976,,,,,0
HODM,4/1/17,49.95051736,16.05247167,22.96,99.37,2880,,,,,0
HODM,5/1/17,58.91665995,19.20896096,15.88,100,2976,,,,,0
HODM,6/1/17,61.03066667,24.03579866,22.64,100,2880,,,,,0
HODM,7/1/17,55.29470766,23.86237291,11.53,100,2976,,,,,0
HODM,8/1/17,55.13608199,22.59259141,8.48,100,2976,,,,,0
HODM,9/1/17,52.08919444,22.83368111,11.53,100,2880,,,,,0
HODM,10/1/17,67.4624664,24.86943378,16.28,100,2976,,,,,0
HODM,11/1/17,67.84835707,21.50274869,15.62,100,2879,,,,,0
HODM,12/1/17,75.07117272,18.97547941,18.51,100,2976,,,,,0
HODM,1/1/18,71.28117608,18.40833249,24.92,100,2976,,,,,0
HODM,2/1/18,67.00816592,19.40025899,20.21,100,2688,,,,,0
HODM,3/1/18,67.01839046,21.97789998,28.28,100,2976,,,,,0
HODM,4/1/18,55.95776389,22.46046625,13.24,100,2880,,,,,0
HODM,5/1/18,62.13591062,19.34144949,28.03,100,2976,,,,,0
HODM,6/1/18,62.14243403,22.59393762,25.03,100,2880,,,,,0
HODM,7/1/18,56.06812836,24.74237426,15.74,100,2976,,,,,0
HODM,8/1/18,56.16134745,22.80720996,10.29,100,2976,,,,,0
HODM,9/1/18,59.61107986,21.0789271,15.9,100,2880,,,,,0
HODM,10/1/18,61.83921371,23.85630721,20.81,100,2976,,,,,0
HODM,11/1/18,65.06306426,21.77611754,15.69,100,2552,,,,,0